Time,TemperatureF,DewpointF,PressureIn,WindDirection,WindDirectionDegrees,WindSpeedMPH,WindSpeedGustMPH,Humidity,HourlyPrecipIn,Conditions,Clouds,dailyrainin,SoftwareType,DateUTC
2013-08-23 04:53:00,66.0,42.0,26.62,SE,125,5.0,9.0,42,0.00,,,0.00,,2013-08-23 10:53:00,
2013-08-23 07:53:00,68.0,43.0,26.58,ESE,102,8.0,14.0,41,0.00,,,0.00,,2013-08-23 13:53:00,
2013-08-23 08:12:00,68.0,43.0,26.59,SE,137,5.0,12.0,41,0.00,,,0.00,,2013-08-23 14:12:00,
2013-08-23 12:12:00,80.0,59.0,26.54,ESE,106,11.0,19.0,49,0.00,,,0.00,,2013-08-23 18:12:00,
2013-08-23 12:22:00,80.0,59.0,26.54,SE,138,12.0,20.0,48,0.00,,,0.00,,2013-08-23 18:22:00,
2013-08-23 12:52:00,80.0,59.0,26.54,SE,137,12.0,24.0,48,0.00,,,0.00,,2013-08-23 18:52:00,
2013-08-23 13:12:00,81.0,60.0,26.54,SW,225,12.0,21.0,49,0.00,,,0.00,,2013-08-23 19:12:00,
2013-08-23 13:22:00,82.0,61.0,26.54,SSE,159,16.0,26.0,50,0.00,,,0.00,,2013-08-23 19:22:00,
2013-08-23 13:42:00,83.0,62.0,26.53,SSE,152,12.0,23.0,50,0.00,,,0.00,,2013-08-23 19:42:00,
2013-08-23 13:52:00,85.0,64.0,26.53,South,175,10.0,23.0,49,0.00,,,0.00,,2013-08-23 19:52:00,
2013-08-23 14:12:00,85.0,64.0,26.52,SSE,147,12.0,23.0,49,0.00,,,0.00,,2013-08-23 20:12:00,
2013-08-23 14:22:00,86.0,64.0,26.51,South,188,10.0,22.0,48,0.00,,,0.00,,2013-08-23 20:22:00,
2013-08-23 14:42:00,86.0,64.0,26.51,SSW,213,11.0,25.0,48,0.00,,,0.00,,2013-08-23 20:42:00,
2013-08-23 14:52:00,87.0,64.0,26.50,South,186,11.0,20.0,47,0.00,,,0.00,,2013-08-23 20:52:00,
2013-08-23 15:11:00,88.0,65.0,26.50,SSW,208,10.0,23.0,46,0.00,,,0.00,,2013-08-23 21:11:00,
2013-08-23 15:22:00,89.0,63.0,26.49,SE,138,12.0,21.0,42,0.00,,,0.00,,2013-08-23 21:22:00,
2013-08-23 15:43:00,89.0,62.0,26.49,SE,144,12.0,21.0,41,0.00,,,0.00,,2013-08-23 21:43:00,
2013-08-23 15:54:00,88.0,61.0,26.49,SSE,161,10.0,16.0,41,0.00,,,0.00,,2013-08-23 21:54:00,
2013-08-23 16:13:00,89.0,61.0,26.49,WSW,240,8.0,21.0,40,0.00,,,0.00,,2013-08-23 22:13:00,
2013-08-23 16:24:00,87.0,61.0,26.48,SSW,203,16.0,28.0,42,0.00,,,0.00,,2013-08-23 22:24:00,
2013-08-23 16:43:00,87.0,62.0,26.48,South,188,10.0,21.0,44,0.00,,,0.00,,2013-08-23 22:43:00,
2013-08-23 16:53:00,87.0,63.0,26.48,South,186,10.0,19.0,45,0.00,,,0.00,,2013-08-23 22:53:00,
2013-08-23 17:12:00,87.0,62.0,26.47,South,188,11.0,18.0,44,0.00,,,0.00,,2013-08-23 23:12:00,
2013-08-23 17:22:00,89.0,61.0,26.46,South,181,8.0,16.0,40,0.00,,,0.00,,2013-08-23 23:22:00,
2013-08-23 17:43:00,89.0,61.0,26.46,SSW,209,8.0,19.0,39,0.00,,,0.00,,2013-08-23 23:43:00,
2013-08-23 17:54:00,89.0,61.0,26.46,SSW,205,6.0,14.0,40,0.00,,,0.00,,2013-08-23 23:54:00,
2013-08-23 18:11:00,89.0,60.0,26.46,SE,132,9.0,14.0,38,0.00,,,0.00,,2013-08-24 00:11:00,
2013-08-23 18:22:00,89.0,61.0,26.46,SSW,192,10.0,18.0,39,0.00,,,0.00,,2013-08-24 00:22:00,
2013-08-23 18:43:00,89.0,62.0,26.46,South,182,5.0,16.0,41,0.00,,,0.00,,2013-08-24 00:43:00,
2013-08-23 18:53:00,88.0,62.0,26.46,SSW,207,5.0,15.0,42,0.00,,,0.00,,2013-08-24 00:53:00,
2013-08-23 19:11:00,88.0,63.0,26.45,SSW,193,4.0,8.0,44,0.00,,,0.00,,2013-08-24 01:11:00,
2013-08-23 19:22:00,87.0,64.0,26.45,South,190,4.0,7.0,46,0.00,,,0.00,,2013-08-24 01:22:00,
2013-08-23 19:42:00,86.0,63.0,26.45,South,171,2.0,6.0,47,0.00,,,0.00,,2013-08-24 01:42:00,
2013-08-23 19:53:00,85.0,62.0,26.46,SSE,165,6.0,11.0,47,0.00,,,0.00,,2013-08-24 01:53:00,
2013-08-23 20:12:00,84.0,62.0,26.46,South,175,4.0,8.0,48,0.00,,,0.00,,2013-08-24 02:12:00,
2013-08-23 20:22:00,83.0,62.0,26.46,SSW,195,5.0,8.0,49,0.00,,,0.00,,2013-08-24 02:22:00,
2013-08-23 20:42:00,82.0,61.0,26.46,South,180,3.0,6.0,50,0.00,,,0.00,,2013-08-24 02:42:00,
2013-08-23 20:52:00,80.0,60.0,26.47,SSE,151,0.0,6.0,51,0.00,,,0.00,,2013-08-24 02:52:00,
2013-08-23 21:12:00,79.0,59.0,26.47,SSE,150,1.0,5.0,51,0.00,,,0.00,,2013-08-24 03:12:00,
2013-08-23 21:22:00,78.0,58.0,26.48,SSE,151,0.0,0.0,51,0.00,,,0.00,,2013-08-24 03:22:00,
2013-08-23 21:44:00,77.0,57.0,26.48,SSE,150,0.0,1.0,51,0.00,,,0.00,,2013-08-24 03:44:00,
2013-08-23 21:55:00,78.0,58.0,26.48,SSE,153,2.0,5.0,51,0.00,,,0.00,,2013-08-24 03:55:00,
2013-08-23 22:14:00,77.0,57.0,26.48,SSE,152,0.0,0.0,51,0.00,,,0.00,,2013-08-24 04:14:00,
2013-08-23 22:24:00,76.0,57.0,26.47,SSE,153,0.0,0.0,51,0.00,,,0.00,,2013-08-24 04:24:00,
2013-08-23 22:44:00,76.0,57.0,26.47,SSE,154,2.0,5.0,51,0.00,,,0.00,,2013-08-24 04:44:00,
2013-08-23 22:53:00,76.0,57.0,26.46,South,190,2.0,7.0,51,0.00,,,0.00,,2013-08-24 04:53:00,
2013-08-23 23:13:00,76.0,57.0,26.47,South,190,0.0,4.0,51,0.00,,,0.00,,2013-08-24 05:13:00,
2013-08-23 23:23:00,75.0,55.0,26.47,South,190,0.0,0.0,50,0.00,,,0.00,,2013-08-24 05:23:00,
2013-08-23 23:43:00,74.0,54.0,26.46,South,190,3.0,5.0,49,0.00,,,0.00,,2013-08-24 05:43:00,